Flag for U.S.A. Weather past 2 weeks in Lynchburg, Virginia, U.S.A.

Now
33 °F

Overcast.


Feels Like: 33 °F
Forecast: 27 / 48 °F
Wind: No wind

Location: Lynchburg Regional Airport

Current Time: Feb 1, 2015 at 7:47:19 AM

Latest Report: Feb 1, 2015 at 6:54 AM


Visibility: 10 mi

Pressure: 30.25 "Hg

Humidity: 56%

Dew point: 19 °F

Location of LynchburgLocation

Historic Weather in Lynchburg — Graph

°F

Lynchburg temperature yesterday

Maximum temperature yesterday: 44 °F (at 3:54 PM)
Minimum temperature yesterday: 15 °F (at 2:54 AM)
Average temperature yesterday: 29 °F

Past Weeks' High & Low Weather Summary

 TemperatureHumidityPressure
High59 °F (Jan 20, 2:54 PM)100% (Jan 21, 10:54 PM)30.39 "Hg (Jan 21, 10:54 PM)
Low15 °F (Jan 31, 2:54 AM)16% (Jan 31, 4:54 PM)29.56 "Hg (Jan 24, 11:54 AM)
Average36 °F62%30.03 "Hg
* Reported Jan 17 6:54 AM — Feb 1 6:54 AM, Lynchburg, Weather by CustomWeather, © 2014

Note: Actual official high and low records may vary slightly from our data, if they occured in-between our weather recording intervals... More about our weather records

Advertising

Lynchburg weather history for previous 24 hours

 ConditionsComfort  
Time TempWeatherWind HumidityBarometerVisibility
6:54 AM
Feb 1
33 °FOvercast.No wind56%30.25 "Hg10 mi
5:54 AM34 °FOvercast.No wind50%30.24 "Hg10 mi
4:54 AM33 °FMostly cloudy.No wind49%30.25 "Hg10 mi
3:54 AM32 °FOvercast.No wind54%30.25 "Hg10 mi
2:54 AM32 °FOvercast.No wind47%30.25 "Hg10 mi
1:54 AM33 °FOvercast.No wind41%30.25 "Hg10 mi
12:54 AM33 °FClear.No wind41%30.25 "Hg10 mi
11:54 PM
Jan 31
32 °FClear.3 mph36%30.27 "Hg10 mi
10:54 PM31 °FClear.No wind36%30.27 "Hg10 mi
9:54 PM32 °FClear.6 mph33%30.28 "Hg10 mi
8:54 PM32 °FClear.3 mph35%30.29 "Hg10 mi
7:54 PM35 °FClear.5 mph28%30.29 "Hg10 mi
6:54 PM38 °FClear.6 mph24%30.29 "Hg10 mi
5:54 PM40 °FClear.5 mph20%30.28 "Hg10 mi
4:54 PM43 °FSunny.N/A16%30.26 "Hg10 mi
3:54 PM44 °FSunny.9 mph18%30.26 "Hg10 mi
2:54 PM43 °FSunny.6 mph18%30.27 "Hg10 mi
1:54 PM42 °FSunny.8 mph18%30.27 "Hg10 mi
12:54 PM39 °FSunny.7 mph20%30.30 "Hg10 mi
11:54 AM37 °FSunny.5 mph24%30.34 "Hg10 mi
10:54 AM32 °FSunny.6 mph30%30.36 "Hg10 mi
9:54 AM28 °FSunny.8 mph39%30.36 "Hg10 mi
8:54 AM23 °FSunny.3 mph60%30.35 "Hg10 mi
7:54 AM16 °FSunny.No wind77%30.34 "Hg10 mi
Weather by CustomWeather, © 2014

See weather overviewHow to use our weather pages